Regional Weather Roundup
Issued by NWS

Home | Current Version | Previous Version | Text Only | Print | Product List | Glossary Off
Versions: 1 2 3 4 5 6 7 8 9 10 11 12 13 14 15 16 17 18 19 20 21 22 23 24 25 26 27 28 29 30 31 32 33 34 35 36 37 38 39 40 41 42 43 44 45 46 47 48 49 50

000
ASUS43 KLMK 282302
RWRKY
KENTUCKY REGIONAL WEATHER ROUNDUP
NATIONAL WEATHER SERVICE LOUISVILLE KY
700 PM EDT FRI AUG 28 2015

NOTE "FAIR" INDICATES FEW OR NO CLOUDS BELOW 12,000 FEET
WITH NO SIGNIFICANT WEATHER AND/OR OBSTRUCTIONS TO VISIBILITY.

KYZ001>023-026-027-061>063-070>075-290000-
WESTERN AND SOUTH CENTRAL KENTUCKY

CITY           SKY/WX    TMP DP  RH WIND       PRES   REMARKS
PADUCAH        PTSUNNY   83  64  52 E6        30.02F
HENDERSON      SUNNY     79  64  61 CALM      30.04S
OWENSBORO      SUNNY     83  65  54 S5        30.05F
HOPKINSVILLE   SUNNY     86  63  46 S3        30.04S
BOWLING GREEN  SUNNY     86  61  42 SE8       30.06R
GLASGOW        PTSUNNY   84  64  49 E7        30.07S
$$

KYZ024-025-028>034-038-045-046-053-290000-
NORTH CENTRAL KENTUCKY

CITY           SKY/WX    TMP DP  RH WIND       PRES   REMARKS
LOUISVILLE/SDF PTSUNNY   82  59  45 S6        30.07F
LOUISVILLE/LOU SUNNY     82  58  43 VRB3      30.08F
FORT KNOX      MOSUNNY   81  64  55 N5        30.07S
$$

KYZ035>037-039>044-047>052-055>060-089>105-290000-
NORTHEAST KENTUCKY

CITY           SKY/WX    TMP DP  RH WIND       PRES   REMARKS
LEXINGTON      SUNNY     83  59  44 N5        30.11S
COVINGTON      PTSUNNY   78  57  48 SE6       30.12S
FRANKFORT      MOSUNNY   81  59  47 N7        30.10S
$$

KYZ054-064>069-076>088-106>120-290000-
SOUTHEAST KENTUCKY

CITY           SKY/WX    TMP DP  RH WIND       PRES   REMARKS
JACKSON        SUNNY     79  62  56 CALM      30.14R
LONDON         MOSUNNY   81  60  48 CALM      30.12S
SOMERSET       SUNNY     81  63  54 E6        30.11S
MIDDLESBORO    SUNNY     82  64  54 CALM      30.12R
MONTICELLO     CLEAR     83  68  60 CALM      30.12S
$$




USA.gov is the U.S. government's official web portal to all federal, state and local government web resources and services.